Vernon, TX

11:32 PM CST on December 15, 2019 (GMT -0600)
Vernon

Weather History for KF05 - November, 2019

Change the Weather History Date:

Monday, November 11, 2019

  Actual Average (KLTS) Record (KLTS)
Temperature  
Mean Temperature 44 °F -  
Max Temperature 63 °F 61 °F 79 °F (2007)
Min Temperature 25 °F 40 °F 28 °F (1997)
Degree Days  
Heating Degree Days 20    
Moisture  
Dew Point 30 °F    
Average Humidity 74    
Maximum Humidity 99    
Minimum Humidity 51    
Precipitation  
Precipitation 0.00 in - - ()
Sea Level Pressure  
Sea Level Pressure 30.33 in    
Wind  
Wind Speed 20 mph (North)    
Max Wind Speed 43 mph    
Max Gust Speed 54 mph    
Visibility 9 miles    
Events      
Averages and records for this station are not official NWS values.
T = Trace of Precipitation, MM = Missing Value Source: NWS Daily Summary

Daily Weather History Graph

Daily Weather History Graph

Search for Another Location

Airport or City:

Astronomy

Nov. 11, 2019 Rise Set
Actual Time 7:06 AM CST 5:35 PM CST
Civil Twilight 6:39 AM CST 6:02 PM CST
Nautical Twilight 6:09 AM CST 6:32 PM CST
Astronomical Twilight 5:39 AM CST 7:01 PM CST
Moon 5:28 PM CST (11/11) 6:04 AM CST (11/11)
Length of Visible Light 11h 22m
Length of Day
10h 29m
Waxing Gibbous, 99% of the Moon is Illuminated
Nov 11
Waxing Gibbous
Nov 12
Full
Nov 19
Last Quarter
Nov 26
New
Dec 4
First Quarter

Hourly Weather History & Observations

Time (CST) Temp. Windchill Dew Point Humidity Pressure Visibility Wind Dir Wind Speed Gust Speed Precip Events Conditions
12:15 AM 63.7 °F - 57.2 °F 79% 29.78 in 10.0 mi South 10.4 mph - N/A   Clear
12:35 AM 63.3 °F - 57.4 °F 81% 29.78 in 10.0 mi South 9.2 mph - N/A   Clear
12:55 AM 63.0 °F - 57.4 °F 82% 29.78 in 10.0 mi South 10.4 mph - N/A   Clear
1:15 AM 62.8 °F - 57.4 °F 82% 29.79 in 10.0 mi South 6.9 mph - N/A   Clear
1:35 AM 62.2 °F - 57.2 °F 84% 29.78 in 10.0 mi SSW 6.9 mph - N/A   Clear
1:55 AM 61.5 °F - 57.4 °F 86% 29.78 in 10.0 mi SSW 6.9 mph - N/A   Clear
2:15 AM 61.5 °F - 57.7 °F 87% 29.78 in 10.0 mi SSW 6.9 mph - N/A   Clear
2:35 AM 61.7 °F - 58.1 °F 88% 29.79 in 10.0 mi SW 5.8 mph - N/A   Clear
2:55 AM 61.2 °F - 57.6 °F 88% 29.80 in 10.0 mi WSW 5.8 mph - N/A   Clear
3:15 AM 59.5 °F - 56.8 °F 91% 29.80 in 10.0 mi WNW 3.5 mph - N/A   Clear
3:35 AM 57.9 °F - 55.9 °F 93% 29.81 in 10.0 mi NW 3.5 mph - N/A   Clear
4:15 AM 56.5 °F - 55.0 °F 95% 29.84 in 10.0 mi NW 9.2 mph - N/A   Clear
4:35 AM 56.8 °F - 54.7 °F 92% 29.86 in 10.0 mi North 16.1 mph - N/A   Mostly Cloudy
4:55 AM 57.4 °F - 55.4 °F 93% 29.89 in 10.0 mi North 31.1 mph 40.3 mph N/A   Overcast
5:15 AM 53.8 °F - 48.6 °F 82% 29.95 in 10.0 mi North 39.1 mph 49.5 mph N/A   Overcast
5:35 AM 49.5 °F - 41.5 °F 74% 29.99 in 10.0 mi North 42.6 mph 54.1 mph N/A   Overcast
5:55 AM 45.5 °F 35.3 °F 39.2 °F 79% 30.03 in 7.0 mi North 34.5 mph 50.6 mph N/A   Unknown
6:15 AM 42.4 °F 30.9 °F 38.3 °F 85% 30.06 in 4.0 mi North 35.7 mph 47.2 mph N/A   Overcast
6:35 AM 40.5 °F 27.6 °F 38.3 °F 92% 30.10 in 3.0 mi North 40.3 mph 50.6 mph N/A   Overcast
6:55 AM 38.7 °F 26.3 °F 37.4 °F 95% 30.13 in 2.5 mi North 32.2 mph 46.0 mph N/A   Overcast
7:15 AM 37.8 °F 24.3 °F 36.9 °F 97% 30.15 in 3.0 mi North 36.8 mph 51.8 mph N/A   Overcast
7:35 AM 36.7 °F 22.3 °F 36.1 °F 98% 30.18 in 4.0 mi North 40.3 mph 52.9 mph N/A   Overcast
7:55 AM 35.6 °F 22.3 °F 34.9 °F 97% 30.21 in 4.0 mi North 31.1 mph 46.0 mph N/A   Overcast
8:15 AM 34.3 °F 20.2 °F 33.8 °F 98% 30.25 in 7.0 mi North 33.4 mph 43.7 mph N/A   Overcast
8:35 AM 33.4 °F 18.1 °F 32.5 °F 96% 30.28 in 7.0 mi North 38.0 mph 47.2 mph N/A   Overcast
8:55 AM 32.5 °F 17.1 °F 32.0 °F 98% 30.30 in 10.0 mi North 36.8 mph 48.3 mph N/A   Overcast
9:15 AM 32.0 °F 17.6 °F 31.6 °F 99% 30.33 in 10.0 mi North 29.9 mph 51.8 mph N/A   Overcast
9:35 AM 32.0 °F 16.7 °F 30.7 °F 95% 30.34 in 10.0 mi North 34.5 mph 48.3 mph N/A   Overcast
9:55 AM - - - N/A% 30.36 in 10.0 mi North 39.1 mph 49.5 mph N/A   Unknown
10:15 AM 31.1 °F 15.1 °F 27.3 °F 86% 30.37 in 10.0 mi North 36.8 mph 48.3 mph N/A   Overcast
10:35 AM 31.1 °F 16.4 °F 26.8 °F 84% 30.38 in 10.0 mi North 29.9 mph 44.9 mph N/A   Overcast
10:55 AM 31.1 °F 15.9 °F 27.9 °F 88% 30.41 in 3.0 mi North 32.2 mph 41.4 mph N/A   Overcast
11:15 AM - - - N/A% 30.43 in - North 24.2 mph - N/A   Unknown
11:35 AM 30.7 °F 15.2 °F 27.9 °F 89% 30.43 in 4.0 mi North 33.4 mph 44.9 mph N/A   Overcast
11:55 AM 30.6 °F 14.8 °F 27.0 °F 86% 30.45 in 3.0 mi North 34.5 mph 43.7 mph N/A   Overcast
12:15 PM 30.2 °F 15.2 °F 25.9 °F 84% 30.46 in 4.0 mi North 29.9 mph 34.5 mph N/A   Overcast
12:35 PM - - - N/A% - - North - - N/A   Unknown
12:55 PM 29.8 °F 16.3 °F 24.3 °F 80% 30.47 in 10.0 mi North 23.0 mph 34.5 mph N/A   Overcast
1:15 PM 29.8 °F 16.0 °F 23.9 °F 79% 30.48 in 10.0 mi North 24.2 mph 33.4 mph N/A   Overcast
1:35 PM 30.2 °F 16.8 °F 23.9 °F 77% 30.49 in 10.0 mi North 23.0 mph 35.7 mph N/A   Overcast
1:55 PM 30.6 °F 16.7 °F 23.2 °F 74% 30.48 in 10.0 mi North 25.3 mph 35.7 mph N/A   Overcast
2:15 PM 30.9 °F 16.9 °F 22.6 °F 71% 30.48 in 10.0 mi North 26.5 mph 36.8 mph N/A   Overcast
2:35 PM 31.1 °F 17.4 °F 21.9 °F 69% 30.48 in 10.0 mi North 25.3 mph 34.5 mph N/A   Overcast
2:55 PM 31.3 °F 16.7 °F 21.7 °F 68% 30.49 in 10.0 mi North 29.9 mph 35.7 mph N/A   Overcast
3:15 PM 31.1 °F 16.4 °F 21.0 °F 66% 30.50 in 10.0 mi North 29.9 mph 40.3 mph N/A   Overcast
3:35 PM 31.1 °F 18.0 °F 20.5 °F 65% 30.51 in 10.0 mi North 23.0 mph 33.4 mph N/A   Overcast
3:55 PM 31.1 °F 16.9 °F 20.1 °F 64% 30.52 in 10.0 mi North 27.6 mph 35.7 mph N/A   Overcast
4:15 PM 31.3 °F 17.9 °F 19.2 °F 61% 30.52 in 10.0 mi North 24.2 mph 36.8 mph N/A   Overcast
4:35 PM 31.6 °F 17.4 °F 18.7 °F 59% 30.53 in 10.0 mi NNE 28.8 mph 35.7 mph N/A   Overcast
4:55 PM 31.1 °F 17.4 °F 17.8 °F 58% 30.54 in 10.0 mi North 25.3 mph 31.1 mph N/A   Mostly Cloudy
5:15 PM 31.5 °F 19.4 °F 18.0 °F 57% 30.55 in 10.0 mi North 19.6 mph 32.2 mph N/A   Scattered Clouds
5:35 PM 31.3 °F 19.2 °F 17.1 °F 56% 30.57 in 10.0 mi North 19.6 mph 32.2 mph N/A   Clear
5:55 PM 31.1 °F 17.4 °F 16.5 °F 55% 30.58 in 10.0 mi North 25.3 mph 29.9 mph N/A   Clear
6:15 PM 30.9 °F 19.8 °F 15.8 °F 54% 30.60 in 10.0 mi North 16.1 mph 27.6 mph N/A   Scattered Clouds
6:35 PM 30.7 °F 16.9 °F 15.4 °F 53% 30.61 in 10.0 mi North 25.3 mph 29.9 mph N/A   Scattered Clouds
6:55 PM 30.4 °F 17.0 °F 15.3 °F 53% 30.62 in 10.0 mi North 23.0 mph 28.8 mph N/A   Clear
7:15 PM 30.0 °F 17.2 °F 15.1 °F 54% 30.62 in 10.0 mi North 20.7 mph 27.6 mph N/A   Clear
7:35 PM 29.5 °F 16.8 °F 15.3 °F 55% 30.63 in 10.0 mi North 19.6 mph 24.2 mph N/A   Clear
7:55 PM 29.3 °F 17.0 °F 15.6 °F 57% 30.64 in 10.0 mi North 18.4 mph 23.0 mph N/A   Clear
8:15 PM 29.1 °F 17.5 °F 15.8 °F 58% 30.64 in 10.0 mi North 16.1 mph 20.7 mph N/A   Clear
8:35 PM 29.1 °F 16.4 °F 15.6 °F 57% 30.65 in 10.0 mi North 19.6 mph 23.0 mph N/A   Clear
8:55 PM 29.1 °F 16.0 °F 15.1 °F 56% 30.66 in 10.0 mi North 20.7 mph 25.3 mph N/A   Clear
9:15 PM 28.9 °F 16.5 °F 14.4 °F 55% 30.67 in 10.0 mi North 18.4 mph 24.2 mph N/A   Clear
9:35 PM 28.6 °F 16.8 °F 14.4 °F 55% 30.67 in 10.0 mi North 16.1 mph 23.0 mph N/A   Clear
9:55 PM 28.4 °F 16.6 °F 13.8 °F 54% 30.67 in 10.0 mi North 16.1 mph 21.9 mph N/A   Clear
10:15 PM 28.2 °F 14.2 °F 12.9 °F 53% 30.68 in 10.0 mi North 23.0 mph 29.9 mph N/A   Clear
10:35 PM 27.9 °F 15.9 °F 11.7 °F 51% 30.69 in 10.0 mi North 16.1 mph 27.6 mph N/A   Clear
10:55 PM 27.3 °F 14.8 °F 11.5 °F 51% 30.69 in 10.0 mi North 17.3 mph 23.0 mph N/A   Clear
11:15 PM 26.6 °F 13.1 °F 10.9 °F 52% 30.69 in 10.0 mi North 19.6 mph 26.5 mph N/A   Clear
11:35 PM 26.1 °F 13.6 °F 10.8 °F 52% 30.69 in 10.0 mi North 16.1 mph 20.7 mph N/A   Clear
11:55 PM 25.2 °F 13.3 °F 10.8 °F 54% 30.70 in 10.0 mi North 13.8 mph 17.3 mph N/A   Clear